This demonstration page uses our WeatherBlox Daily Observations layout. Learn more.

Left ArrowRight Arrow

41.55636, -103.73856

Hourly Observations for October 6, 2022

Temp ( °F °C ) Dew Point ( °F °C ) Humidity (%) Winds ( mph kmh ) Pressure ( in mb ) Visibility ( mi km ) Precip ( " mm )
12:56 am 00:56 Clear 48 9 38 3.2 67 67 WSW 5 7 30.21 1023 10 16 0.00 0.00
1:56 am 01:56 Clear 48 9 37 3 66 66 NNW 6 9 30.22 1023 10 16 0.00 0.00
2:56 am 02:56 Clear 43 6.3 37 2.6 77 77 W 5 7 30.23 1024 10 16 0.00 0.00
3:56 am 03:56 Clear 45 7.3 37 2.8 73 73 WSW 5 7 30.21 1023 10 16 0.00 0.00
4:56 am 04:56 Clear 41 4.8 36 2.3 84 84 WSW 8 13 30.23 1024 10 16 0.00 0.00
5:56 am 05:56 Clear 41 5.2 36 2.2 81 81 WNW 3 6 30.24 1024 10 16 0.00 0.00
6:56 am 06:56 Clear 40 4.7 35 1.5 80 80 WNW 5 7 30.26 1025 10 16 0.00 0.00
7:56 am 07:56 Sunny 42 5.3 37 2.5 82 82 WSW 3 6 30.28 1025 10 16 0.00 0.00
8:56 am 08:56 Sunny 52 11 42 5.5 69 69 W 3 6 30.28 1025 10 16 0.00 0.00
9:56 am 09:56 Sunny 57 13.9 38 3.4 49 49 ENE 5 7 30.27 1025 10 16 0.00 0.00
10:56 am 10:56 Sunny 62 16.9 38 3.2 40 40 E 7 11 30.26 1025 10 16 0.00 0.00
11:56 am 11:56 Sunny 67 19.4 38 3.1 34 34 E 7 11 30.24 1024 10 16 0.00 0.00
12:56 pm 12:56 Sunny 70 20.9 37 2.7 30 30 E 9 15 30.21 1023 10 16 0.00 0.00
1:56 pm 13:56 Sunny 72 22.2 34 1.2 25 25 SE 8 13 30.19 1022 10 16 0.00 0.00
2:56 pm 14:56 Mostly Sunny 71 21.5 37 2.7 29 29 E 15 24 30.20 1023 10 16 0.00 0.00
3:56 pm 15:56 Partly Cloudy 67 19.3 44 6.7 44 44 E 17 28 30.21 1023 10 16 0.00 0.00
4:56 pm 16:56 Sunny 60 15.5 46 8 61 61 E 22 35 30.26 1025 10 16 0.00 0.00
5:56 pm 17:56 Sunny 50 10 44 6.9 81 81 E 22 35 30.30 1026 10 16 0.00 0.00
6:56 pm 18:56 Cloudy 47 8.5 43 6.3 86 86 E 20 31 30.34 1028 10 16 0.00 0.00
7:56 pm 19:56 Cloudy 46 7.6 43 6.2 91 91 E 17 28 30.37 1029 7 11 0.00 0.00
8:56 pm 20:56 Cloudy with Drizzle 43 5.9 41 5.2 95 95 E 15 24 30.39 1029 1 2 0.01 0.13
9:56 pm 21:56 Cloudy 43 5.9 42 5.3 96 96 E 7 11 30.40 1030 10 16 0.01 0.13
10:56 pm 22:56 Cloudy 42 5.8 38 3.5 85 85 NE 13 20 30.41 1030 10 16 0.00 0.00
11:56 pm 23:56 Cloudy 41 5 32 0 70 70 E 9 15 30.41 1030 10 16 0.00 0.00

Powered by AerisWeather